KB7YYZ Weather Reports


time (UTC)temp
F
wind
direction
speed
knots
gust
knots
rain 1hr
in
rain 24hr
in
rain mn
in
humidity
%
barometer
mb
20260831063523 92 252 0.0 0.9 0.00 0.00 0.00 40 1008.2
20260831062523 92 240 0.9 0.9 0.00 0.00 0.00 40 1008.1
20260831061534 92 214 0.0 0.9 0.00 0.00 0.00 40 1008.1
20260831060533 92 225 0.0 0.0 0.00 0.00 0.00 39 1008.0
20260831055529 92 0.0 0.0 0.00 0.00 0.00 39 1008.0
20260831054539 92 0.0 0.0 0.00 0.00 0.00 38 1008.0
20260831053540 92 325 0.9 0.9 0.00 0.00 0.00 38 1008.0
20260831052556 92 6 0.9 0.9 0.00 0.00 0.00 37 1007.9
20260831051532 93 354 0.9 0.9 0.00 0.00 0.00 36 1007.7
20260831050528 93 338 0.0 0.9 0.00 0.00 0.00 36 1007.6
20260831045526 93 359 0.0 0.9 0.00 0.00 0.00 36 1007.8
20260831044524 93 18 0.9 0.9 0.00 0.00 0.00 35 1007.8
20260831043523 94 319 0.9 0.9 0.00 0.00 0.00 35 1007.8
20260831042520 94 324 0.9 0.9 0.00 0.00 0.00 35 1007.8
20260831041523 94 345 0.0 0.0 0.00 0.00 0.00 34 1007.7
20260831040531 94 0.0 0.0 0.00 0.00 0.00 34 1007.7
20260831035520 95 356 0.0 0.0 0.00 0.00 0.00 33 1007.6
20260831034528 95 0 0.0 0.0 0.00 0.00 0.00 33 1007.5
20260831033532 95 320 0.9 0.9 0.00 0.00 0.00 33 1007.3
20260831032522 96 293 0.9 0.9 0.00 0.00 0.00 33 1007.0
20260831031534 96 265 1.7 1.7 0.00 0.00 0.00 32 1006.9
20260831030532 97 276 1.7 1.7 0.00 0.00 0.00 33 1006.7
20260831025525 97 267 0.9 1.7 0.00 0.00 0.00 32 1006.5
20260831024532 98 279 1.7 1.7 0.00 0.00 0.00 32 1006.3
20260831023555 98 303 1.7 1.7 0.00 0.00 0.00 32 1005.9
20260831022552 99 271 0.9 1.7 0.00 0.00 0.00 32 1005.5
20260831021531 99 259 0.9 0.9 0.00 0.00 0.00 31 1005.2
20260831020521 99 268 0.0 0.0 0.00 0.00 0.00 31 1005.1
20260831015526 99 306 0.0 0.0 0.00 0.00 0.00 30 1005.1
20260831014553 100 278 0.9 0.9 0.00 0.00 0.00 30 1005.0
20260831013533 100 283 0.9 0.9 0.00 0.00 0.00 29 1004.9
20260831012527 100 285 0.9 0.9 0.00 0.00 0.00 29 1004.9
20260831011546 101 299 0.9 0.9 0.00 0.00 0.00 29 1004.8
20260831010533 101 300 0.9 0.9 0.00 0.00 0.00 28
20260831005521 101 299 0.9 0.9 0.00 0.00 0.00 27
20260831004519 102 302 0.9 0.9 0.00 0.00 0.00 26
20260831003531 102 274 0.9 0.9 0.00 0.00 0.00 26 1004.8
20260831002524 103 268 0.9 0.9 0.00 0.00 0.00 26 1004.9
20260831001520 103 284 0.9 0.9 0.00 0.00 0.00 26 1004.8
20260831000526 103 324 0.9 0.9 0.00 0.00 0.00 26 1004.8
20260830235521 104 230 0.9 0.9 0.00 0.00 0.00 26 1004.8
20260830234531 104 285 0.9 1.7 0.00 0.00 0.00 26 1004.8
20260830233530 104 271 1.7 1.7 0.00 0.00 0.00 26 1004.9
20260830232528 104 249 1.7 1.7 0.00 0.00 0.00 27 1005.0
20260830231523 104 323 0.9 0.9 0.00 0.00 0.00 27 1005.1
20260830230531 104 327 0.9 0.9 0.00 0.00 0.00 26 1005.3
20260830225556 105 327 1.7 1.7 0.00 0.00 0.00 27 1005.5
20260830224530 105 319 0.9 0.9 0.00 0.00 0.00 27 1005.6
20260830223524 104 316 1.7 1.7 0.00 0.00 0.00 27 1005.9
20260830222520 105 270 0.9 1.7 0.00 0.00 0.00 27 1006.1
20260830221546 105 237 1.7 1.7 0.00 0.00 0.00 27 1006.3
20260830220552 105 313 0.9 1.7 0.00 0.00 0.00 27 1006.4
20260830215530 104 11 0.9 0.9 0.00 0.00 0.00 27 1006.6
20260830214520 104 237 1.7 1.7 0.00 0.00 0.00 27 1006.7
20260830213524 105 238 1.7 1.7 0.00 0.00 0.00 27 1006.8
20260830212523 104 317 0.9 0.9 0.00 0.00 0.00 27 1006.9
20260830211519 104 219 0.9 0.9 0.00 0.00 0.00 27 1007.1
20260830210529 105 255 0.9 1.7 0.00 0.00 0.00 27 1007.3
20260830205530 104 16 1.7 1.7 0.00 0.00 0.00 28 1007.6
20260830204532 104 312 0.9 0.9 0.00 0.00 0.00 28 1007.8
20260830203521 104 212 0.9 0.9 0.00 0.00 0.00 28 1008.0
20260830202527 104 289 1.7 1.7 0.00 0.00 0.00 28 1008.2
20260830201533 104 291 1.7 1.7 0.00 0.00 0.00 28 1008.2
20260830200529 104 274 0.9 1.7 0.00 0.00 0.00 28 1008.3
20260830195530 103 250 1.7 1.7 0.00 0.00 0.00 28 1008.5
20260830194529 104 210 0.9 0.9 0.00 0.00 0.00 28 1008.6
20260830193523 103 293 0.9 1.7 0.00 0.00 0.00 29 1008.8
20260830192549 103 21 0.9 0.9 0.00 0.00 0.00 29 1009.0
20260830191549 103 66 0.9 0.9 0.00 0.00 0.00 29 1009.2
20260830190527 103 250 0.9 0.9 0.00 0.00 0.00 29 1009.3
20260830185528 103 317 0.9 0.9 0.00 0.00 0.00 30 1009.4
20260830184520 102 305 0.9 0.9 0.00 0.00 0.00 30 1009.5
20260830183552 101 309 1.7 1.7 0.00 0.00 0.00 31 1009.6
20260830182552 101 169 0.9 0.9 0.00 0.00 0.00 31 1009.8
20260830181522 100 174 0.9 0.9 0.00 0.00 0.00 32 1009.9
20260830180525 100 231 0.9 1.7 0.00 0.00 0.00 31 1010.0
20260830175524 100 294 0.9 1.7 0.00 0.00 0.00 32 1010.0
20260830174524 99 231 0.9 0.9 0.00 0.00 0.00 33 1010.1
20260830173529 98 319 0.9 0.9 0.00 0.00 0.00 34 1010.2
20260830172519 98 171 0.9 0.9 0.00 0.00 0.00 36 1010.4
20260830171601 97 187 0.9 0.9 0.00 0.00 0.00 36 1010.4
20260830170528 96 172 0.9 0.9 0.00 0.00 0.00 36 1010.4
20260830165601 96 184 0.9 0.9 0.00 0.00 0.00 37 1010.4
20260830164529 95 84 1.7 1.7 0.00 0.00 0.00 37 1010.4
20260830163528 95 205 1.7 1.7 0.00 0.00 0.00 38 1010.5
20260830162528 95 213 1.7 1.7 0.00 0.00 0.00 38 1010.6
20260830161528 94 200 0.9 1.7 0.00 0.00 0.00 39 1010.6
20260830160522 93 171 0.9 0.9 0.00 0.00 0.00 40 1010.7
20260830155523 92 128 0.9 0.9 0.00 0.00 0.00 41 1010.7
20260830154530 92 131 0.9 0.9 0.00 0.00 0.00 41 1010.6
20260830153559 91 203 0.9 1.7 0.00 0.00 0.00 42 1010.6
20260830152527 91 146 0.9 0.9 0.00 0.00 0.00 43 1010.6
20260830151548 90 170 0.9 0.9 0.00 0.00 0.00 44 1010.5
20260830150541 89 213 0.9 0.9 0.00 0.00 0.00 45 1010.5
20260830145530 88 208 0.9 0.9 0.00 0.00 0.00 46 1010.6
20260830144528 88 176 0.9 0.9 0.00 0.00 0.00 46 1010.6
20260830143528 87 232 0.9 1.7 0.00 0.00 0.00 46 1010.6
20260830142524 87 217 0.9 0.9 0.00 0.00 0.00 46 1010.8
20260830141524 86 180 0.9 0.9 0.00 0.00 0.00 46 1010.7
20260830140520 86 188 1.7 1.7 0.00 0.00 0.00 46 1010.8
20260830135521 86 189 0.9 1.7 0.00 0.00 0.00 46 1010.7
20260830134548 86 187 0.9 0.9 0.00 0.00 0.00 45 1010.6
20260830133527 86 105 0.9 0.9 0.00 0.00 0.00 45 1010.7
20260830132528 86 137 1.7 1.7 0.00 0.00 0.00 45 1010.6
20260830131521 86 116 1.7 1.7 0.00 0.00 0.00 45 1010.4
20260830130548 86 159 0.9 0.9 0.00 0.00 0.00 45 1010.3
20260830125527 87 235 1.7 1.7 0.00 0.00 0.00 45 1010.3
20260830124527 87 179 1.7 1.7 0.00 0.00 0.00 44 1010.2
20260830123524 87 189 1.7 1.7 0.00 0.00 0.00 44 1010.0
20260830122547 87 208 1.7 1.7 0.00 0.00 0.00 43 1009.9
20260830121526 87 166 1.7 1.7 0.00 0.00 0.00 43 1009.8
20260830120526 88 186 1.7 1.7 0.00 0.00 0.00 42 1009.8
20260830115607 88 175 1.7 1.7 0.00 0.00 0.00 42 1009.9
20260830114520 88 317 0.9 0.9 0.00 0.00 0.00 41 1010.0
20260830113527 88 197 1.7 1.7 0.00 0.00 0.00 41 1009.3
20260830112521 88 155 2.6 2.6 0.00 0.00 0.00 41 1008.7
20260830111528 88 230 2.6 2.6 0.00 0.00 0.00 41 1008.4
20260830110547 88 211 2.6 2.6 0.00 0.00 0.00 41 1008.7
20260830105527 88 176 2.6 2.6 0.00 0.00 0.00 40 1008.7
20260830104522 88 191 2.6 2.6 0.00 0.00 0.00 41 1008.7
20260830103520 88 214 1.7 1.7 0.00 0.00 0.00 41 1008.6
20260830102526 89 172 0.9 0.9 0.00 0.00 0.00 41 1008.5
20260830101527 88 205 1.7 1.7 0.00 0.00 0.00 41 1008.3
20260830100526 88 163 1.7 1.7 0.00 0.00 0.00 41 1008.2
20260830095546 88 123 1.7 1.7 0.00 0.00 0.00 41 1008.1
20260830094526 88 152 1.7 1.7 0.00 0.00 0.00 42 1008.0
20260830093521 88 133 0.9 0.9 0.00 0.00 0.00 42 1008.0
20260830092528 88 171 0.0 0.0 0.00 0.00 0.00 43 1008.1
20260830091546 88 260 0.0 0.0 0.00 0.00 0.00 42 1008.0
20260830090526 89 0.0 0.0 0.00 0.00 0.00 42 1008.0
20260830085526 89 0.0 0.0 0.00 0.00 0.00 42 1008.1
20260830084526 89 0.0 0.0 0.00 0.00 0.00 42 1008.3
20260830083525 89 0.0 0.0 0.00 0.00 0.00 41 1008.3
20260830082525 89 0.0 0.0 0.00 0.00 0.00 41 1008.3
20260830081525 89 0.0 0.0 0.00 0.00 0.00 41 1008.2
20260830080525 89 277 0.0 0.9 0.00 0.00 0.00 41 1008.3
20260830075525 89 14 0.0 0.9 0.00 0.00 0.00 41 1008.1
20260830074521 90 312 0.0 0.0 0.00 0.00 0.00 41 1008.3
20260830073527 90 358 0.9 0.9 0.00 0.00 0.00 41 1008.4
20260830072519 90 299 1.7 1.7 0.00 0.00 0.00 41 1007.9
20260830071525 90 327 0.9 0.9 0.00 0.00 0.00 40 1008.0
20260830070542 90 238 0.0 0.9 0.00 0.00 0.00 41 1007.9
20260830065519 90 294 0.9 0.9 0.00 0.00 0.00 41 1007.8
20260830064525 90 249 0.9 1.7 0.00 0.00 0.00 41 1007.8